Regional Weather Roundup
Issued by NWS Bismarck, ND

Home | Current Version | Previous Version | Text Only | Print | Product List | Glossary On
Versions: 1 2 3 4 5 6 7 8 9 10 11 12 13 14 15 16 17 18 19 20 21 22 23 24 25 26 27 28 29 30 31 32 33 34 35 36 37 38 39 40 41 42 43 44 45 46 47 48 49 50
000
ASUS43 KBIS 281701
RWRBIS

NWR BROADCAST TEXT
NATIONAL WEATHER SERVICE BISMARCK ND
1100 AM CST SAT FEB 28 2015

NOTE: "FAIR" INDICATES FEW OR NO CLOUDS BELOW 12,000 FEET WITH NO
SIGNIFICANT WEATHER AND/OR OBSTRUCTIONS TO VISIBILITY.


CITY           SKY/WX    TMP DP  RH WIND       PRES   REMARKS
WILLISTON      FLURRIES  10   1  67 NW15      30.18S WCI  -7
MINOT          MOSUNNY    9   0  67 W16       30.12R WCI  -8
MINOT AFB      NOT AVBL
BISMARCK       CLOUDY    20   9  62 W8        30.12R WCI  10
DICKINSON      SUNNY     13   0  56 NW23      30.10R WCI  -6
GARRISON         N/A     10   2  69 NW22      30.10R WCI -10
HETTINGER ARPT MOSUNNY   16   1  51 NW24      30.10R WCI  -2
JAMESTOWN      CLOUDY    13   5  70 S13       30.11S WCI  -2
CARRINGTON     CLOUDY    16   9  73 MISG      30.09F
CROSBY         FLURRIES   5   0  78 NW16      30.16S WCI -14
HAZEN          PTSUNNY   14   1  57 NW17G24   30.15R WCI  -3
LINTON         CLOUDY    19  10  68 W9        30.10S WCI   9
OAKES            N/A     16   9  73 S22G28    30.17F WCI  -2
WATFORD CITY   FLURRIES   9   1  72 NW16      30.15S WCI  -9
$$

CITY           SKY/WX    TMP DP  RH WIND       PRES   REMARKS
GRAND FORKS    PTSUNNY   12   4  70 S22       30.19F WCI  -7
GRAND FORKS AF CLOUDY    17   6  61 SW14      30.17F WCI   3
DEVILS LAKE    CLOUDY    12   3  67 SW8       30.08F WCI   1
FARGO          FAIR      19   7  59 S15       30.24F WCI   5
GWINNER        MOSUNNY   21  10  63 S23       30.21S WCI   5
$$

CITY           SKY/WX    TMP DP  RH WIND       PRES   REMARKS
ABERDEEN       PTSUNNY   17   7  64 S20       30.22F WCI   1
MOBRIDGE       CLOUDY    21  11  65 SW8       30.09S WCI  11
BUFFALO          N/A     12   3  67 NW24G33   30.05R WCI  -8
RAPID CITY     SUNNY     19   6  57 N22       30.10S WCI   2
GLASGOW        CLOUDY    12   1  61 NW13      30.20R WCI  -3
SIDNEY         MOSUNNY   12   3  67 NW7       30.22R WCI   2
WOLF POINT     CLOUDY    16   4  59 NW14      30.21R WCI   2
GLENDIVE       CLOUDY    14   7  73 W8        30.17S WCI   3
MILES CITY     CLOUDY    17   6  62 W13       30.19S WCI   4
BAKER          CLOUDY    11   3  70 NW17      30.14R WCI  -6
$$

CITY           SKY/WX    TMP DP  RH WIND       PRES   REMARKS
BILLINGS       PTSUNNY   19  11  70 SW3       30.13S
GREAT FALLS    CLOUDY    13   8  81 W3        30.16S HAZE
$$




USA.gov is the U.S. government's official web portal to all federal, state and local government web resources and services.